Weather History for Hollywood, FL

Change the Weather History Date:

Tuesday, November 19, 2013

  Actual Average (KFLL) Record (KFLL)
Temperature  
Mean Temperature 78 °F 75 °F  
Max Temperature 84 °F 81 °F 88 °F (1957)
Min Temperature 72 °F 69 °F 41 °F (1951)
Degree Days  
Heating Degree Days 0 0  
Month to date heating degree days 0  
Since 1 July heating degree days 0  
Cooling Degree Days 13 10  
Month to date cooling degree days 216  
Year to date cooling degree days 4410  
Growing Degree Days 28 (Base 50)    
Moisture  
Dew Point 71 °F    
Average Humidity 84    
Maximum Humidity 97    
Minimum Humidity 61    
Precipitation  
Precipitation 0.00 in 0.08 in 10.45 in (1973)
Month to date precipitation 2.28  
Year to date precipitation 58.76  
Snow  
Snow 0.00 in - - ()
Month to date snowfall  
Since 1 July snowfall  
Since 1 September snowfall  
Snow Depth -    
Sea Level Pressure  
Sea Level Pressure 29.93 in    
Wind  
Wind Speed 4 mph (NW)    
Max Wind Speed 10 mph    
Max Gust Speed -    
Visibility 10 miles    
Events      
T = Trace of Precipitation, MM = Missing Value Source: NWS Daily Summary

Daily Weather History Graph

Daily Weather History Graph

Search for Another Location

Airport:

Trip Planner

Search our weather history database for the weather conditions in past years. The results will help you decide how hot, cold, wet, or windy it might be!

Date:

Astronomy

Nov. 19, 2013 Rise Set
Actual Time 6:42 AM EST 5:30 PM EST
Civil Twilight 6:17 AM EST 5:54 PM EST
Nautical Twilight 5:49 AM EST 6:22 PM EST
Astronomical Twilight 5:22 AM EST 6:50 PM EST
Moon 7:21 PM EST (11/19) 8:18 AM EST (11/19)
Length of Visible Light 11h 37m
Length of Day
10h 48m
Waning Gibbous, 96% of the Moon is Illuminated
Nov 19
Waning Gibbous
Nov 25
Last Quarter
Dec 2
New
Dec 9
First Quarter
Dec 17
Full

Hourly Weather History & Observations

Time (EST) Temp. Heat Index Dew Point Humidity Pressure Visibility Wind Dir Wind Speed Gust Speed Precip Events Conditions
12:53 AM 75.9 °F - 70.0 °F 82% 29.94 in 10.0 mi SW 4.6 mph - N/A   Mostly Cloudy
1:53 AM 73.9 °F - 71.1 °F 91% 29.92 in 10.0 mi WSW 3.5 mph - N/A   Clear
2:53 AM 73.9 °F - 71.1 °F 91% 29.91 in 10.0 mi Calm Calm - N/A   Scattered Clouds
3:53 AM 73.0 °F - 70.0 °F 90% 29.90 in 10.0 mi SSW 3.5 mph - N/A   Clear
4:53 AM 73.0 °F - 70.0 °F 90% 29.91 in 10.0 mi Calm Calm - N/A   Overcast
5:53 AM 72.0 °F - 70.0 °F 93% 29.92 in 10.0 mi SSW 3.5 mph - N/A   Clear
6:53 AM 72.0 °F - 69.1 °F 91% 29.93 in 10.0 mi WSW 3.5 mph - N/A   Clear
7:53 AM 73.0 °F - 70.0 °F 90% 29.94 in 10.0 mi WSW 3.5 mph - N/A   Overcast
8:53 AM 75.0 °F - 72.0 °F 90% 29.96 in 10.0 mi NW 5.8 mph - N/A   Overcast
9:53 AM 77.0 °F - 71.1 °F 82% 29.97 in 10.0 mi NNW 8.1 mph - N/A   Overcast
10:53 AM 80.1 °F 83.6 °F 71.1 °F 74% 29.96 in 10.0 mi NNW 6.9 mph - N/A   Overcast
11:53 AM 81.0 °F 84.9 °F 71.1 °F 72% 29.94 in 10.0 mi NW 8.1 mph - N/A   Overcast
12:53 PM 82.9 °F 87.5 °F 71.1 °F 67% 29.91 in 10.0 mi Calm Calm - N/A   Scattered Clouds
1:53 PM 84.0 °F 87.8 °F 69.1 °F 61% 29.88 in 10.0 mi WNW 6.9 mph - N/A   Clear
2:53 PM 82.9 °F 86.5 °F 69.1 °F 63% 29.88 in 10.0 mi East 3.5 mph - N/A   Mostly Cloudy
3:15 PM 78.8 °F - 71.6 °F 78% 29.88 in 10.0 mi East 8.1 mph - N/A   Overcast
3:37 PM 78.8 °F - 71.6 °F 78% 29.88 in 10.0 mi East 10.4 mph - 0.00 in   Mostly Cloudy
3:53 PM 79.0 °F - 71.1 °F 77% 29.88 in 10.0 mi East 8.1 mph - 0.00 in   Scattered Clouds
4:53 PM 79.0 °F - 72.0 °F 79% 29.89 in 10.0 mi ENE 8.1 mph - N/A   Overcast
5:53 PM 75.9 °F - 72.0 °F 87% 29.91 in 10.0 mi ENE 9.2 mph - N/A   Mostly Cloudy
6:53 PM 75.0 °F - 72.0 °F 90% 29.94 in 10.0 mi ENE 4.6 mph - N/A   Partly Cloudy
7:53 PM 75.0 °F - 71.1 °F 87% 29.95 in 10.0 mi Calm Calm - N/A   Clear
8:53 PM 75.0 °F - 72.0 °F 90% 29.96 in 10.0 mi Calm Calm - N/A   Scattered Clouds
9:53 PM 73.9 °F - 72.0 °F 93% 29.97 in 10.0 mi West 4.6 mph - N/A   Clear
10:44 PM 73.4 °F - 71.6 °F 94% 29.97 in 10.0 mi NW 6.9 mph - N/A   Mostly Cloudy
10:53 PM 73.9 °F - 71.1 °F 91% 29.97 in 10.0 mi WNW 8.1 mph - N/A   Scattered Clouds
11:53 PM 72.0 °F - 71.1 °F 97% 29.96 in 10.0 mi WNW 3.5 mph - N/A   Clear